Weather History for KCQX - January, 2014

Change the Weather History Date:

Thursday, January 9, 2014

  Actual Average Record
Temperature  
Mean Temperature 22 °F -  
Max Temperature 28 °F 37 °F 53 °F (1998)
Min Temperature 15 °F 24 °F 6 °F (2004)
Degree Days  
Heating Degree Days 44    
Moisture  
Dew Point 8 °F    
Average Humidity 59    
Maximum Humidity 81    
Minimum Humidity 47    
Precipitation  
Precipitation 0.00 in - - ()
Sea Level Pressure  
Sea Level Pressure 30.58 in    
Wind  
Wind Speed 4 mph (WNW)    
Max Wind Speed 10 mph    
Max Gust Speed 22 mph    
Visibility 10 miles    
Events      
Averages and records for this station are not official NWS values.
T = Trace of Precipitation, MM = Missing Value Source: NWS Daily Summary

Daily Weather History Graph

Daily Weather History Graph

Search for Another Location

Airport or City:

Trip Planner

Search our weather history database for the weather conditions in past years. The results will help you decide how hot, cold, wet, or windy it might be!

Date:

Astronomy

Jan. 09, 2014 Rise Set
Actual Time 7:06 AM EST 4:27 PM EST
Civil Twilight 6:35 AM EST 4:58 PM EST
Nautical Twilight 6:00 AM EST 5:33 PM EST
Astronomical Twilight 5:27 AM EST 6:07 PM EST
Moon 11:54 AM EST (1/9) 1:08 AM EST (1/9)
Length of Visible Light 10h 23m
Length of Day
9h 21m
Waxing Gibbous, 66% of the Moon is Illuminated
Jan 9
Waxing Gibbous
Jan 15
Full
Jan 24
Last Quarter
Jan 30
New
Feb 6
First Quarter

Hourly Weather History & Observations

Time (EST) Temp. Windchill Dew Point Humidity Pressure Visibility Wind Dir Wind Speed Gust Speed Precip Events Conditions
12:52 AM 17.1 °F 11.7 °F 1.9 °F 52% 30.45 in 10.0 mi WSW 3.5 mph - N/A   Scattered Clouds
1:52 AM 17.1 °F 8.7 °F 3.0 °F 54% 30.46 in 10.0 mi West 5.8 mph - N/A   Clear
2:52 AM 17.1 °F 10.0 °F 3.0 °F 54% 30.47 in 10.0 mi West 4.6 mph - N/A   Clear
3:52 AM 16.0 °F 8.8 °F 3.0 °F 57% 30.47 in 10.0 mi Variable 4.6 mph - N/A   Clear
4:52 AM 16.0 °F - 3.9 °F 59% 30.48 in 10.0 mi Calm Calm - N/A   Clear
5:52 AM 17.1 °F 11.7 °F 5.0 °F 59% 30.51 in 10.0 mi West 3.5 mph - N/A   Mostly Cloudy
6:52 AM 16.0 °F 10.4 °F 5.0 °F 62% 30.53 in 10.0 mi West 3.5 mph - N/A   Clear
7:52 AM 19.0 °F 12.3 °F 7.0 °F 59% 30.55 in 10.0 mi Variable 4.6 mph - N/A   Clear
8:52 AM 24.1 °F 17.0 °F 10.0 °F 55% 30.57 in 10.0 mi Variable 5.8 mph - N/A   Clear
9:52 AM 26.1 °F 16.2 °F 9.0 °F 49% 30.59 in 10.0 mi WNW 10.4 mph 17.3 mph N/A   Clear
10:52 AM 27.0 °F 18.0 °F 9.0 °F 47% 30.59 in 10.0 mi NW 9.2 mph 21.9 mph N/A   Clear
11:52 AM 27.0 °F 17.3 °F 9.0 °F 47% 30.58 in 10.0 mi NNW 10.4 mph 18.4 mph N/A   Clear
12:52 PM 27.0 °F 17.3 °F 9.0 °F 47% 30.57 in 10.0 mi NNW 10.4 mph - N/A   Clear
1:52 PM 28.0 °F 20.8 °F 10.0 °F 47% 30.58 in 10.0 mi Variable 6.9 mph 16.1 mph N/A   Clear
2:52 PM 27.0 °F 18.7 °F 9.0 °F 47% 30.61 in 10.0 mi NW 8.1 mph - N/A   Clear
3:52 PM 26.1 °F 20.5 °F 9.0 °F 49% 30.62 in 10.0 mi Variable 4.6 mph - N/A   Clear
4:52 PM 24.1 °F - 9.0 °F 53% 30.64 in 10.0 mi Calm Calm - N/A   Clear
6:52 PM 17.1 °F - 10.0 °F 74% 30.67 in 10.0 mi Calm Calm - N/A   Clear
7:52 PM 16.0 °F - 9.0 °F 74% 30.67 in 10.0 mi Calm Calm - N/A   Clear
8:52 PM 15.1 °F - 9.0 °F 77% 30.67 in 10.0 mi Calm Calm - N/A   Clear
9:52 PM 16.0 °F - 10.9 °F 81% 30.67 in 10.0 mi Calm Calm - N/A   Clear
10:52 PM 15.1 °F - 10.0 °F 80% 30.65 in 10.0 mi Calm Calm - N/A   Clear
11:52 PM 15.1 °F - 9.0 °F 77% 30.63 in 10.0 mi Calm Calm - N/A   Clear